Flag for U.S.A. Weather past 2 weeks in Davenport, Iowa, U.S.A.

Now
45 °F

Clear.


Feels Like: 41 °F
Forecast: 42 / 67 °F
Wind: 7 mph from North

Location: Davenport Municipal Airport

Current Time: Sep 22, 2014 at 3:27:05 AM

Latest Report: Sep 22, 2014 at 2:52 AM


Visibility: 10 mi

Pressure: 30.23 "Hg

Humidity: 86%

Dew point: 41 °F

Location of DavenportLocation

Historic Weather in Davenport — Graph

°F

Davenport temperature yesterday

Maximum temperature yesterday: 65 °F (at 4:52 PM)
Minimum temperature yesterday: 48 °F (at 11:52 PM)
Average temperature yesterday: 58 °F

Past Weeks' High & Low Weather Summary

 TemperatureHumidityPressure
High78 °F (Sep 9, 1:52 PM)97% (Sep 12, 4:52 AM)30.42 "Hg (Sep 12, 4:52 AM)
Low33 °F (Sep 13, 6:52 AM)39% (Sep 13, 2:52 PM)29.49 "Hg (Sep 10, 6:52 AM)
Average58 °F75%30.08 "Hg
* Reported Sep 7 1:52 AM — Sep 22 1:52 AM, Davenport, Weather by CustomWeather, © 2014

Note: Actual official high and low records may vary slightly from our data, if they occured in-between our weather recording intervals... More about our weather records

Advertising

Davenport weather history for previous 24 hours

 ConditionsComfort  
Time TempWeatherWind HumidityBarometerVisibility
1:52 AM
Sep 22
46 °FClear.7 mph89%30.21 "Hg10 mi
12:52 AM48 °FClear.7 mph86%30.20 "Hg10 mi
11:52 PM
Sep 21
48 °FClear.3 mph86%30.19 "Hg10 mi
10:52 PM50 °FClear.6 mph83%30.18 "Hg10 mi
9:52 PM51 °FClear.6 mph80%30.17 "Hg10 mi
8:52 PM52 °FClear.6 mph80%30.16 "Hg10 mi
7:52 PM55 °FSunny.6 mph77%30.14 "Hg10 mi
6:52 PM61 °FScattered clouds.6 mph65%30.11 "Hg10 mi
5:52 PM65 °FPassing clouds.13 mph54%30.09 "Hg10 mi
4:52 PM65 °FScattered clouds.10 mph59%30.08 "Hg10 mi
3:52 PM63 °FOvercast.12 mph60%30.08 "Hg10 mi
2:52 PM62 °FOvercast.15 mph62%30.07 "Hg10 mi
1:52 PM63 °FOvercast.17 mph58%30.05 "Hg10 mi
12:52 PM63 °FMostly cloudy.10 mph58%30.05 "Hg10 mi
12:04 PM61 °FOvercast.17 mph60%30.04 "Hg10 mi
11:52 AM61 °FOvercast.18 mph62%30.03 "Hg10 mi
10:52 AM62 °FPartly sunny.17 mph60%30.01 "Hg10 mi
9:52 AM61 °FScattered clouds.21 mph60%29.98 "Hg10 mi
8:52 AM59 °FSunny.16 mph69%29.95 "Hg10 mi
7:52 AM56 °FSunny.13 mph84%29.92 "Hg10 mi
6:52 AM54 °FClear.13 mph86%29.91 "Hg10 mi
5:52 AM55 °FClear.12 mph87%29.90 "Hg10 mi
4:52 AM53 °FClear.8 mph89%29.90 "Hg10 mi
3:52 AM53 °FClear.8 mph89%29.89 "Hg10 mi
Weather by CustomWeather, © 2014

See weather overviewHow to use our weather pages